Zurück zum Katalog

SHIKONGXING 01

AktivWissenschaftVLEO
NORAD 65712·PAYLOAD·🇨🇳 China

Gestartet Sep 24, 2025 von Yellow Sea Launch Area

Loading…

Nächste Überflüge (nächste 24 Stunden)

TLE

AktuellSource: Space-Track

Epoche: Sep 14, 2026, 09:54 UTC

1 65712U 25214A   26257.41316252  .00001331  00000-0  14950-3 0  9991
2 65712  49.9858 234.3158 0013218 239.2159 120.7483 14.93151764 53035

Verfolge SHIKONGXING 01 in Echtzeit mit AllMySat

Download on the App Store